Regional Weather Roundup
Issued by NWS

Home | Current Version | Previous Version | Graphics & Text | Print | Product List | Glossary On
Versions: 1 2 3 4 5 6 7 8 9 10 11 12 13 14 15 16 17 18 19 20 21 22 23 24 25 26 27 28 29 30 31 32 33 34 35 36 37 38 39 40 41 42 43 44 45 46 47 48 49 50
000
ASUS43 KLSX 160507
RWRMO

WEATHER SUMMARY FOR MISSOURI
NATIONAL WEATHER SERVICE SPRINGFIELD MO
1200 AM CDT TUE SEP 16 2014

NOTE: "FAIR" INDICATES FEW OR NO CLOUDS BELOW 12,000 FEET WITH NO
       SIGNIFICANT WEATHER AND/OR OBSTRUCTIONS TO VISIBILITY.
       CURRENT SKY AND/OR WEATHER CONDITIONS ARE NOT AVAILABLE FOR
       CHILLICOTHE AND FARMINGTON.

MOZ001>031-035>038-043-044-053-054-160600-
...NORTHERN AND WESTERN MISSOURI...

CITY           SKY/WX    TMP DP  RH WIND       PRES   REMARKS
KANSAS CTY INT CLEAR     50  49  96 N6        30.25R
KANSAS C DTWN  CLEAR     55  50  83 NE6       30.25R
LEE`S SUMMIT   CLEAR     55  50  83 NE7       30.25S
ST JOSEPH      MOCLDY    52  48  86 N6        30.26S
CHILLICOTHE      N/A     51  49  92 CALM      30.26S
KIRKSVILLE     CLOUDY    55  52  89 N5        30.24S

$$
MOZ066>068-077>081-088>096-101>105-160600-
...SOUTHWEST MISSOURI...

CITY           SKY/WX    TMP DP  RH WIND       PRES   REMARKS
SPRINGFIELD    CLOUDY    67  61  81 NE14      30.18R
JOPLIN         CLOUDY    66  62  87 N6        30.19S

$$
MOZ032>034-039>042-045>050-055>058-069>072-160600-
...CENTRAL MISSOURI...

CITY           SKY/WX    TMP DP  RH WIND       PRES   REMARKS
COLUMBIA       CLOUDY    60  55  83 N7        30.21R
JEFFERSON CITY CLOUDY    61  57  87 N6        30.20R FOG
ROLLA          CLOUDY    62  57  83 NE5       30.17S
SEDALIA        CLOUDY    59  54  83 N8        30.22S
WHITEMAN AFB   CLOUDY    57  52  84 N9        30.22S
OSAGE BEACH    CLOUDY    63  57  82 CALM      30.19S

$$
MOZ051-052-059>065-160600-
...EAST CENTRAL MISSOURI...

CITY           SKY/WX    TMP DP  RH WIND       PRES   REMARKS
ST LOUIS INTL  MOCLDY    60  57  89 N3        30.18R
SPIRIT OF STL  CLOUDY    62  58  86 N3        30.17S
ST CHARLES     CLOUDY    60  57  89 N9        30.17S

$$
MOZ072>076-082>087-097>100-106>115-160600-
...SOUTH CENTRAL AND SOUTHEAST MISSOURI...

CITY           SKY/WX    TMP DP  RH WIND       PRES   REMARKS
CAPE GIRARDEAU CLOUDY    69  67  93 CALM      30.12R FOG
FARMINGTON     CLOUDY    63  59  88 N5        30.18R
POPLAR BLUFF   MOCLDY    65  62  90 CALM      30.10S FOG
WEST PLAINS    CLOUDY    70  66  87 NE8       30.16S

$$


USA.gov is the U.S. government's official web portal to all federal, state and local government web resources and services.